Regional Weather Roundup
Issued by NWS Grand Forks, ND

Home | Current Version | Previous Version | Graphics & Text | Print | Product List | Glossary On
Versions: 1 2 3 4 5 6 7 8 9 10 11 12 13 14 15 16 17 18 19 20 21 22 23 24 25 26 27 28 29 30 31 32 33 34 35 36 37 38 39 40 41 42 43 44 45 46 47 48 49 50
531
ASUS43 KFGF 272331
RWRFGF
PRAIRIE TO PINES  WEATHER ROUNDUP
NATIONAL WEATHER SERVICE EASTERN NORTH DAKOTA/GRAND FORKS ND
600 PM CDT TUE SEP 27 2016

 **SATELLITE DATA USED TO AUGMENT SKY COVER AT AUTOMATED STATIONS**
 *****  WEATHER ACROSS EASTERN NORTH DAKOTA  *****

CITY           SKY/WX    TMP DP  RH WIND       PRES   REMARKS
GRAND FORKS    MOSUNNY   57  44  62 N18       29.93R
GRAND FRKS AFB SUNNY     58  44  61 NE13      29.93R
GRAND FRKS NWS   N/A     54 N/A N/A N9          N/A
DEVILS LAKE    SUNNY     63  32  31 N13       29.94R
FARGO          SUNNY     60  41  49 N14G22    29.90R
WAHPETON ARPT  CLOUDY    59  37  44 N15G21    29.89R
$$

 ***** WEATHER ACROSS CENTRAL AND WESTERN NORTH DAKOTA  *****

CITY           SKY/WX    TMP DP  RH WIND       PRES   REMARKS
BISMARCK       SUNNY     72  42  34 N6        29.93S
MINOT          SUNNY     71  41  33 NE7       29.94R
JAMESTOWN      SUNNY     64  31  28 N10       29.91S
MINOT AFB      SUNNY     69  42  37 NE5       29.93R
GARRISON         N/A     71  44  37 S5        29.94R
WILLISTON      SUNNY     79  52  38 SW5       29.91S
DICKINSON      SUNNY     76  43  30 NW12      29.93S
HETTINGER      SUNNY     80  44  27 NW13      29.95F
$$

 *****  OTHER AIRPORT OBSERVATIONS IN OUR AREA  *****

CITY           SKY/WX    TMP DP  RH WIND       PRES   REMARKS
WALHALLA       FAIR      55  52  88 N13       29.96R
GRAFTON AIRPOR FAIR      57  46  67 N15       29.96R
VALLEY CITY AR FAIR      63  32  31 N13       29.93R
CANDO          FAIR      63  34  34 N9        29.97R
CAVALIER APRT  FAIR      55  45  67 N12       29.95R
GWINNER        FAIR      66  28  24 N12G21    29.90R
ROLLA          FAIR      63  32  31 N9        29.97R
 ***** THE ABOVE OBSERVATIONS ARE NON NWS ARE NOT QUALITY
       CONTROLLED AND MAY MIS-REPORT RAIN FOR SNOW...
$$

  *****  WEATHER ACROSS NORTHERN MINNESOTA  *****

CITY           SKY/WX    TMP DP  RH WIND       PRES   REMARKS
FLAG ISLAND    MOCLDY    52  43  71 N13G18    29.91R
WARROAD        CLOUDY    52  43  71 N7        29.93R
ROSEAU         CLOUDY    52  45  76 N7        29.93R
HALLOCK        CLOUDY    54  46  76 N10       29.94R
THF RVR FALLS    N/A     51  44  77 N14       29.93R
BAUDETTE       CLOUDY    51  44  77 N10       29.89R
WASKISH        CLOUDY    48  46  93 NW8       29.89R
CROOKSTON      CLOUDY    54  45  71 N14G20    29.93R
STEPHEN NDAWN    N/A     54  46  76 N10         N/A
GREENBUSH NDAW   N/A     50  45  81 N9          N/A
$$
  *****  WEATHER ACROSS CENTRAL AND WEST MINNESOTA  *****

CITY           SKY/WX    TMP DP  RH WIND       PRES   REMARKS
FOSSTON        DRIZZLE   46  43  87 N9G16     29.93R
BEMIDJI        CLOUDY    46  44  90 N7        29.89R
PARK RAPIDS    CLOUDY    50  44  80 N14       29.88R
ELBOW LAKE     CLOUDY    57  41  55 N16G23    29.88R
WADENA         CLOUDY    48  43  81 NW9       29.88R
DETROIT LAKES  CLOUDY    52  43  71 N12G20    29.91R
MOORHEAD       SUNNY     57  43  58 N18       29.91R
FERGUS FALLS   CLOUDY    55  43  62 N14G22    29.91R
MORRIS MN      CLOUDY    63  39  42 N16       29.85R
STAPLES        CLOUDY    46  45  93 NW9       29.88R
$$
  *****  WEATHER ELSEWHERE ACROSS MINNESOTA  *****

CITY           SKY/WX    TMP DP  RH WIND       PRES   REMARKS
DULUTH         CLOUDY    49  45  86 N14G22    29.77R
INTRNTL FALLS  CLOUDY    51  44  77 N13       29.85R
ELY            CLOUDY    48  45  87 NW7       29.79R
CLOQUET        CLOUDY    46  45  93 NW10      29.79R
WHEATON        SUNNY     66  37  34 N16       29.88R
BRAINERD       CLOUDY    48  46  93 N9        29.86R
HIBBING        CLOUDY    48  44  86 N12       29.82R
ALEXANDRIA     CLOUDY    55  44  66 N10       29.88R
SAINT CLOUD    CLOUDY    49  47  93 NW13      29.85R
MINNEAPOLIS    LGT RAIN  51  46  83 N10       29.84R
$$

  *****  WEATHER ACROSS SOUTH DAKOTA  *****

CITY           SKY/WX    TMP DP  RH WIND       PRES   REMARKS
SIOUX FALLS    MOSUNNY   74  43  32 NW13      29.85F
BROOKINGS      SUNNY     68  41  37 N13       29.86S
WATERTOWN      SUNNY     67  32  27 N14       29.88R
HURON          SUNNY     75  40  28 N17       29.87S
SISSETON         N/A     67  29  24 N18       29.86R
ABERDEEN       SUNNY     71  37  28 N17       29.89S
MITCHELL       SUNNY     76  42  29 N12       29.87F
PIERRE         SUNNY     80  41  24 N9        29.88S
MOBRIDGE       SUNNY     75  40  28 NE13      29.90S
RAPID CITY     SUNNY     82  41  23 N22       29.98S
$$

  *****  SOME WEATHER IN NEARBY STATES *****

CITY           SKY/WX    TMP DP  RH WIND       PRES   REMARKS
GLASGOW MT     LGT RAIN  86  41  20 NW17G25   29.90S
GREAT FALLS MT SUNNY     83  38  20 W9        30.01S
CHEYENNE WY    SUNNY     77  24  14 N7        30.17F
SCOTTSBLUFF NE SUNNY     84  32  15 SW6       30.03F
OMAHA NE       SUNNY     77  47  34 NW7       29.86F
DES MOINES IA  MOSUNNY   75  42  30 W14G23    29.80F
DAVENPORT IA   PTCLDY    70  30  22 W16G26    29.78S
CHICAGO IL     CLOUDY    67  31  26 W16G25    29.75R
EAU CLAIRE WI  LGT RAIN  49  46  90 NW13G21   29.78R
LA CROSSE WI   LGT RAIN  57  46  66 N8        29.77R
$$

  *****  SOME NATIONAL WEATHER *****

CITY           SKY/WX    TMP DP  RH WIND       PRES   REMARKS
LA GUARDIA NY  PTCLDY    71  60  68 S13       29.90R
RALEIGH NC     MOCLDY    76  69  79 VRB5      29.89R
ATLANTA GA     LGT RAIN  73  69  87 NE8       29.91S
NEW ORLEANS LA PTSUNNY   87  73  62 NW3       29.90R HX  94
OKLAHOMA CITY  MOSUNNY   79  45  29 SW10      30.00F
ALBUQUERQUE NM MOSUNNY   77  35  21 VRB3      30.19F
SALT LAKE CITY MOSUNNY   76  46  34 NW7       30.12F
LOS ANGELES CA MOSUNNY   84  52  33 W16       29.82R
BOISE ID       SUNNY     86  42  21 VRB3      30.00F
SEATTLE WA     MOSUNNY   68  44  42 N15       30.17F
$$

*** WEATHER ACROSS MANITOBA...SASKATCHEWAN AND ONTARIO ***
                ***ONTARIO***

CITY           SKY/WX    TMP DP  RH WIND       PRES   REMARKS
GERALDTON      PTCLDY    54  50  87 NE7       29.75R
THUNDER BAY    MOCLDY    55  50  82 N6        29.69R
SIOUX LOOKOUT  DRIZZLE   50  48  93 N6        29.86R
TORONTO        PTCLDY    66  36  32 SW12      29.78R
BIG TROUT LK   CLOUDY    54  52  94 VRB2      29.94R
PICKLE LAKE    MOCLDY    54  50  87 NE10      29.87R
DRYDEN         CLOUDY    48  46  93 N7        29.87R
KENORA         MOCLDY    48  45  87 N12G17    29.91R
$$
                *** MANITOBA***

CITY           SKY/WX    TMP DP  RH WIND       PRES   REMARKS
BRANDON        SUNNY     64  39  39 E10       29.95R
DAUPHIN        SUNNY     59  41  51 NE6       29.97R
ISLAND LAKE    CLOUDY    46  45  93 NE3       29.99S
PILOT MOUND      N/A     59  36  41 N12         N/A
THE PAS        MOSUNNY   59  28  31 SE7       29.95S
THOMPSON       CLOUDY    46  41  81 VRB2      30.00R
WINNIPEG       PTSUNNY   52  45  76 NE15      29.96R
LYNN LAKE      CLOUDY    45  41  87 SE9       29.94F
CHURCHILL      CLOUDY    43  43 100 NE8       30.03F
GILLAM         CLOUDY    46  43  87 NE3       30.00R
$$
                ***SASKATCHEWAN***

CITY           SKY/WX    TMP DP  RH WIND       PRES   REMARKS
ESTEVAN        MOSUNNY   73  46  38 E7        29.91S
KINDERSLEY     MOSUNNY   64  41  42 N23G31    30.01R
LLOYDMINSTER   MOSUNNY   57  41  54 NW13G21   30.04R
PRINCE ALBERT  MOSUNNY   70  46  43 SE6       29.86S
REGINA         SUNNY     77  48  36 S7        29.86S
YORKTON        SUNNY     68  41  37 SE8       29.92R
N. BATTLEFORD  PTSUNNY   63  43  48 NW28G35   29.99R
LA RONGE       PTSUNNY   66  45  45 NW20G31   29.87R
SASKATOON      MOSUNNY   70  46  43 NW23G30   29.89R
SWIFT CURRENT  SUNNY     77  46  33 NW15      29.91R
$$
NOTE: THESE ARE AUTOMATED STATIONS WITH LIMITED QUALITY CONTROL
      "FAIR" INDICATES FEW OR NO CLOUDS BELOW 12,000 FEET WITH NO
      SIGNIFICANT WEATHER AND/OR OBSTRUCTIONS TO VISIBILITY.
      SKY/WX - SKY CONDITION AND SIGNIFICANT WEATHER.
      TMP - AIR TEMPERATURE.    DP   - DEWPOINT TEMPERATURE.
      RH  - RELATIVE HUMIDITY.  PRES - PRESSURE.
      HX  - HEAT INDEX.         WCI  - WIND CHILL INDEX.
$




USA.gov is the U.S. government's official web portal to all federal, state and local government web resources and services.